CST,Max TemperatureF,Mean TemperatureF,Min TemperatureF,Max Dew PointF,MeanDew PointF,Min DewpointF,Max Humidity, Mean Humidity, Min Humidity, Max Sea Level PressureIn, Mean Sea Level PressureIn, Min Sea Level PressureIn, Max VisibilityMiles, Mean VisibilityMiles, Min VisibilityMiles, Max Wind SpeedMPH, Mean Wind SpeedMPH, Max Gust SpeedMPH,PrecipitationIn, CloudCover, Events, WindDirDegrees
2011-12-1,33,19,5,28,20,3,92,75,58,30.53,30.35,30.09,10,9,2,26,15,32,T,4,Snow,349
2011-12-2,36,19,2,25,14,-1,88,62,36,30.49,30.24,30.06,10,10,6,26,13,32,0.00,3,,194
2011-12-3,33,29,24,29,26,21,92,79,66,30.12,30.01,29.95,10,3,0,22,10,26,0.16,6,Fog-Snow,344
2011-12-4,24,19,14,19,16,11,92,82,71,30.41,30.21,30.00,10,10,8,18,9,23,0.00,7,,327
2011-12-5,20,16,12,14,11,6,88,81,73,30.54,30.49,30.41,10,9,2,20,11,24,T,8,Snow,336
2011-12-6,12,2,-8,6,-1,-10,91,82,73,30.51,30.34,30.10,10,10,8,21,9,25,0.00,2,,245
2011-12-7,28,19,10,22,17,7,88,79,69,30.17,30.11,30.03,10,10,10,24,10,29,0.00,5,,282
2011-12-8,28,18,7,22,12,-1,100,79,57,30.30,30.25,30.17,10,10,10,20,9,23,0.00,4,,295
2011-12-9,15,3,-9,3,-5,-11,83,68,53,30.51,30.42,30.31,10,10,10,17,9,20,0.00,0,,265
2011-12-10,27,13,-1,20,11,-7,84,76,67,30.46,30.31,30.20,10,8,6,21,13,25,0.00,0,,210
2011-12-11,36,30,23,34,28,18,96,85,74,30.19,30.12,30.05,9,4,1,29,18,35,T,6,Snow,203
2011-12-12,41,37,33,36,34,33,100,90,79,30.30,30.17,30.06,10,6,4,15,7,18,0.00,8,,199
2011-12-13,39,35,31,37,33,28,100,93,85,30.32,30.22,30.04,6,4,1,14,7,18,0.02,8,,106
2011-12-14,44,40,35,43,40,33,100,96,92,30.00,29.76,29.63,10,4,0,24,10,31,0.41,8,Fog-Rain,223
2011-12-15,35,27,18,32,22,15,92,78,63,30.42,30.11,29.79,10,10,5,33,19,40,0.00,6,,312
2011-12-16,29,21,12,25,18,10,92,81,69,30.46,30.38,30.29,10,10,8,14,6,16,T,5,,142
2011-12-17,39,32,24,27,25,23,92,78,64,30.29,30.23,30.19,10,9,7,21,8,24,0.00,3,,274
2011-12-18,52,38,23,35,30,21,92,71,50,30.17,29.90,29.78,10,10,7,23,13,28,0.00,0,,215
2011-12-19,37,29,20,31,23,17,92,74,56,30.31,30.15,29.83,10,10,6,33,16,43,0.00,1,,347
2011-12-20,31,20,9,22,15,7,100,85,69,30.28,30.04,29.78,10,9,6,13,6,15,0.00,0,,226
2011-12-21,37,26,16,29,22,13,93,81,52,30.08,29.82,29.67,10,8,2,18,10,24,0.00,4,Snow,326
2011-12-22,29,21,13,21,13,9,88,69,50,30.39,30.31,30.09,10,10,10,24,13,30,0.00,0,,341
2011-12-23,36,25,13,19,14,10,88,70,52,30.37,30.21,30.08,10,10,10,30,14,37,0.00,3,,242
2011-12-24,46,31,16,23,19,12,88,64,40,30.23,30.19,30.16,10,10,10,21,13,25,0.00,0,,255
2011-12-25,43,32,21,25,21,17,75,60,45,30.36,30.29,30.15,10,10,10,22,12,28,0.00,0,,287
2011-12-26,49,35,21,30,23,18,84,60,36,30.19,29.91,29.81,10,10,10,38,18,49,0.00,1,,220
2011-12-27,41,30,18,30,20,14,84,71,58,30.08,29.98,29.81,10,10,10,33,14,43,0.00,4,,333
2011-12-28,47,33,19,26,21,15,88,65,42,30.04,29.84,29.56,10,10,10,18,10,23,0.00,3,,209
2011-12-29,44,38,32,32,29,25,89,72,54,29.68,29.60,29.53,10,10,4,25,11,31,0.07,2,Rain,336
2011-12-30,39,36,32,36,33,30,100,93,85,29.86,29.67,29.52,10,4,2,21,8,24,0.36,8,Rain-Snow,341
2011-12-31,43,38,33,36,33,30,100,87,73,29.82,29.67,29.50,10,6,0,37,19,47,0.11,5,Fog-Snow-Thunderstorm,256